{"data":{"norad_id":81745,"intl_designator":"","name":"UNKNOWN","alt_names":[],"object_type":"UNKNOWN","status":"UNKNOWN","operator":null,"country":null,"launch_date":null,"launch_site_code":null,"launch_vehicle":null,"mission":null,"orbit_class":"UNKNOWN","rcs_meters":null,"size_class":null,"mass_kg":null,"dimensions":null,"purposes":[],"wikipedia_slug":null,"has_3d_model":false,"image_url":null,"decayed_at":null,"tle_current":{"epoch":"2026-05-23T09:54:23.270976Z","epoch_age_seconds":212500,"freshness":"STALE","line1":"1 81745U          26143.41276934  .00001455  00000+0  46651-3 0  9996","line2":"2 81745  71.0007  33.3889 0005833 307.0123  53.0479 14.41153515653036","mean_motion":14.41153515,"eccentricity":0.0005833,"inclination_deg":71.0007,"raan_deg":33.3889,"arg_perigee_deg":307.0123,"mean_anomaly_deg":53.0479,"bstar":0.00046651,"rev_number":65303,"period_min":99.91995890875,"perigee_km":750.52920903996,"apogee_km":758.85036476957,"semimajor_km":7132.8267869048,"source":"CELESTRAK","updated_at":"2026-05-25T13:38:11.082646Z"}}}